Weather History for Florala, AL

Change the Weather History Date:

Saturday, October 20, 2012

  Actual Average (KCEW) Record (KCEW)
Temperature  
Mean Temperature 62 °F -  
Max Temperature 77 °F 78 °F 89 °F (2004)
Min Temperature 46 °F 47 °F 31 °F (1989)
Degree Days  
Heating Degree Days 4    
Growing Degree Days 12 (Base 50)    
Moisture  
Dew Point 46 °F    
Average Humidity 64    
Maximum Humidity 93    
Minimum Humidity 29    
Precipitation  
Precipitation 0.00 in - - ()
Sea Level Pressure  
Sea Level Pressure 29.97 in    
Wind  
Wind Speed 1 mph (NNW)    
Max Wind Speed 6 mph    
Max Gust Speed -    
Visibility 10 miles    
Events      
Averages and records for this station are not official NWS values.
T = Trace of Precipitation, MM = Missing Value Source: NWS Daily Summary

Daily Weather History Graph

Daily Weather History Graph

Search for Another Location

Airport:

Trip Planner

Search our weather history database for the weather conditions in past years. The results will help you decide how hot, cold, wet, or windy it might be!

Date:

Astronomy

Oct. 20, 2012 Rise Set
Actual Time 6:51 AM CDT 6:07 PM CDT
Civil Twilight 6:27 AM CDT 6:32 PM CDT
Nautical Twilight 5:59 AM CDT 7:00 PM CDT
Astronomical Twilight 5:30 AM CDT 7:28 PM CDT
Moon 12:16 PM CDT (10/20) 11:02 PM CDT (10/20)
Length of Visible Light 12h 04m
Length of Day
11h 15m
Waxing Crescent, 34% of the Moon is Illuminated
Oct 20
Waxing Crescent
Oct 21
First Quarter
Oct 29
Full
Nov 6
Last Quarter
Nov 13
New

Hourly Weather History & Observations

Time (CDT) Temp. Dew Point Humidity Pressure Visibility Wind Dir Wind Speed Gust Speed Precip Events Conditions
12:58 AM 54.0 °F 46.9 °F 77% 29.91 in 10.0 mi Calm Calm - N/A   Clear
1:58 AM 54.0 °F 45.0 °F 72% 29.91 in 10.0 mi Calm Calm - N/A   Clear
2:58 AM 54.0 °F 45.0 °F 72% 29.92 in 10.0 mi Calm Calm - N/A   Clear
3:58 AM 48.0 °F 44.1 °F 86% 29.92 in 10.0 mi Calm Calm - N/A   Clear
4:58 AM 48.0 °F 44.1 °F 86% 29.94 in 10.0 mi Calm Calm - N/A   Clear
5:58 AM 46.9 °F 44.1 °F 90% 29.96 in 10.0 mi Calm Calm - N/A   Clear
6:58 AM 46.0 °F 44.1 °F 93% 29.97 in 10.0 mi Calm Calm - N/A   Clear
7:58 AM 54.0 °F 48.0 °F 80% 29.99 in 10.0 mi Calm Calm - N/A   Clear
8:58 AM 62.1 °F 45.0 °F 53% 30.00 in 10.0 mi NNW 3.5 mph - N/A   Clear
9:58 AM 68.0 °F 48.0 °F 49% 30.01 in 10.0 mi Calm Calm - N/A   Clear
10:58 AM 71.1 °F 44.1 °F 38% 30.00 in 10.0 mi Variable 3.5 mph - N/A   Clear
11:58 AM 73.0 °F 43.0 °F 34% 29.99 in 10.0 mi Variable 5.8 mph - N/A   Clear
12:58 PM 75.0 °F 41.0 °F 29% 29.97 in 10.0 mi Variable 4.6 mph - N/A   Clear
1:58 PM 75.9 °F 43.0 °F 31% 29.95 in 10.0 mi Variable 5.8 mph - N/A   Clear
2:58 PM 77.0 °F 44.1 °F 31% 29.93 in 10.0 mi Variable 3.5 mph - N/A   Clear
3:58 PM 77.0 °F 45.0 °F 32% 29.94 in 10.0 mi Variable 3.5 mph - N/A   Clear
4:58 PM 75.0 °F 46.0 °F 36% 29.94 in 10.0 mi Variable 3.5 mph - N/A   Clear
5:58 PM 68.0 °F 50.0 °F 52% 29.95 in 10.0 mi Calm Calm - N/A   Clear
6:58 PM 61.0 °F 54.0 °F 78% 29.97 in 10.0 mi Calm Calm - N/A   Clear
7:58 PM 57.9 °F 53.1 °F 84% 29.98 in 10.0 mi Calm Calm - N/A   Clear
8:58 PM 55.0 °F 50.0 °F 83% 29.99 in 10.0 mi Calm Calm - N/A   Clear
9:58 PM 54.0 °F 50.0 °F 86% 30.01 in 10.0 mi Calm Calm - N/A   Clear
10:58 PM 54.0 °F 48.9 °F 83% 30.01 in 10.0 mi Calm Calm - N/A   Clear
11:58 PM 51.1 °F 48.0 °F 89% 30.03 in 10.0 mi Calm Calm - N/A   Clear